Change the Weather History Date:

Friday, March 28, 2014

  Actual Average Record
Temperature  
Mean Temperature 66 °F -  
Max Temperature 79 °F 81 °F 98 °F (1971)
Min Temperature 51 °F 43 °F 19 °F (1955)
Growing Degree Days 16 (Base 50)    
Moisture  
Dew Point 24 °F    
Average Humidity 22    
Maximum Humidity 36    
Minimum Humidity 13    
Precipitation  
Precipitation 0.00 in - - ()
Sea Level Pressure  
Sea Level Pressure 29.95 in    
Wind  
Wind Speed 13 mph (WSW)    
Max Wind Speed 31 mph    
Max Gust Speed 37 mph    
Visibility 10 miles    
Events      
Averages and records for this station are not official NWS values.
T = Trace of Precipitation, MM = Missing Value Source: NWS Daily Summary

Daily Weather History Graph

Daily Weather History Graph

Search for Another Location

Airport or City:

Trip Planner

Search our weather history database for the weather conditions in past years. The results will help you decide how hot, cold, wet, or windy it might be!

Date:

Astronomy

Mar. 28, 2014 Rise Set
Actual Time 7:47 AM CDT 8:10 PM CDT
Civil Twilight 7:23 AM CDT 8:35 PM CDT
Nautical Twilight 6:54 AM CDT 9:03 PM CDT
Astronomical Twilight 6:26 AM CDT 9:32 PM CDT
Moon 6:11 AM CDT (3/28) 6:16 PM CDT (3/28)
Length of Visible Light 13h 11m
Length of Day
12h 23m
Waning Crescent, 6% of the Moon is Illuminated
Mar 28
Waning Crescent
Mar 30
New
Apr 7
First Quarter
Apr 15
Full
Apr 22
Last Quarter

Hourly Weather History & Observations

Time (CDT) Temp. Dew Point Humidity Pressure Visibility Wind Dir Wind Speed Gust Speed Precip Events Conditions
12:15 AM 55.6 °F 19.2 °F 24% 29.82 in 10.0 mi WSW 9.2 mph - N/A   Clear
12:35 AM 54.3 °F 18.7 °F 25% 29.82 in 10.0 mi WSW 9.2 mph - N/A   Clear
12:55 AM 55.2 °F 18.5 °F 24% 29.82 in 10.0 mi WSW 9.2 mph - N/A   Clear
1:15 AM 54.7 °F 18.3 °F 24% 29.83 in 10.0 mi WSW 9.2 mph - N/A   Clear
1:35 AM 52.5 °F 18.3 °F 26% 29.83 in 10.0 mi WSW 8.1 mph - N/A   Clear
1:55 AM 53.2 °F 19.6 °F 27% 29.83 in 10.0 mi West 10.4 mph - N/A   Clear
2:15 AM 54.9 °F 20.1 °F 26% 29.83 in 10.0 mi WSW 10.4 mph - N/A   Clear
2:35 AM 56.1 °F 20.5 °F 25% 29.84 in 10.0 mi WSW 11.5 mph - N/A   Clear
2:55 AM 56.8 °F 20.8 °F 25% 29.84 in 10.0 mi WSW 12.7 mph - N/A   Clear
3:15 AM 57.7 °F 21.2 °F 24% 29.84 in 10.0 mi WSW 12.7 mph - N/A   Clear
3:35 AM 57.6 °F 21.6 °F 25% 29.84 in 10.0 mi WSW 11.5 mph - N/A   Clear
3:55 AM 54.7 °F 21.2 °F 27% 29.84 in 10.0 mi WSW 10.4 mph - N/A   Clear
4:15 AM 52.9 °F 21.4 °F 29% 29.85 in 10.0 mi WSW 10.4 mph - N/A   Clear
4:35 AM 53.6 °F 21.7 °F 29% 29.85 in 10.0 mi WSW 10.4 mph - N/A   Clear
4:55 AM 53.8 °F 22.8 °F 30% 29.86 in 10.0 mi WSW 9.2 mph - N/A   Clear
5:15 AM 52.9 °F 22.8 °F 31% 29.86 in 10.0 mi WSW 6.9 mph - N/A   Clear
5:35 AM 53.2 °F 23.0 °F 31% 29.87 in 10.0 mi WSW 10.4 mph - N/A   Clear
5:55 AM 54.5 °F 24.3 °F 31% 29.87 in 10.0 mi WSW 11.5 mph - N/A   Clear
6:15 AM 53.6 °F 24.3 °F 32% 29.88 in 10.0 mi West 9.2 mph - N/A   Clear
6:35 AM 54.1 °F 25.5 °F 33% 29.89 in 10.0 mi WSW 11.5 mph - N/A   Clear
7:15 AM 55.6 °F 27.5 °F 34% 29.91 in 10.0 mi WSW 12.7 mph - N/A   Clear
7:35 AM 55.0 °F 27.5 °F 35% 29.92 in 10.0 mi WSW 11.5 mph - N/A   Clear
7:55 AM 54.9 °F 28.0 °F 36% 29.93 in 10.0 mi WSW 11.5 mph - N/A   Clear
8:15 AM 56.8 °F 29.3 °F 35% 29.94 in 10.0 mi WSW 11.5 mph - N/A   Clear
8:35 AM 58.5 °F 30.2 °F 34% 29.95 in 10.0 mi WSW 11.5 mph - N/A   Clear
8:55 AM 59.5 °F 30.9 °F 34% 29.96 in 10.0 mi SW 12.7 mph - N/A   Clear
9:15 AM 61.7 °F 31.5 °F 32% 29.97 in 10.0 mi WSW 13.8 mph - N/A   Clear
9:35 AM 63.9 °F 31.8 °F 30% 29.98 in 10.0 mi WSW 15.0 mph 19.6 mph N/A   Clear
9:55 AM 65.8 °F 32.0 °F 28% 29.99 in 10.0 mi West 15.0 mph 24.2 mph N/A   Clear
10:15 AM 68.4 °F 32.0 °F 26% 29.99 in 10.0 mi West 26.5 mph 34.5 mph N/A   Clear
10:35 AM 70.0 °F 31.8 °F 24% 30.00 in 10.0 mi West 31.1 mph 36.8 mph N/A   Clear
10:55 AM 70.9 °F 31.5 °F 23% 30.00 in 10.0 mi West 27.6 mph 36.8 mph N/A   Clear
11:15 AM 71.6 °F 29.5 °F 21% 30.00 in 10.0 mi West 26.5 mph 36.8 mph N/A   Clear
11:35 AM 72.5 °F 29.7 °F 21% 30.00 in 10.0 mi West 26.5 mph 36.8 mph N/A   Clear
11:55 AM 72.5 °F 28.9 °F 20% 30.01 in 10.0 mi West 25.3 mph 35.7 mph N/A   Clear
12:15 PM 73.4 °F 27.7 °F 18% 30.01 in 10.0 mi West 25.3 mph 36.8 mph N/A   Clear
12:35 PM 73.8 °F 27.7 °F 18% 30.01 in 10.0 mi West 24.2 mph 33.4 mph N/A   Clear
12:55 PM 74.5 °F 27.3 °F 17% 30.01 in 10.0 mi West 26.5 mph 34.5 mph N/A   Clear
1:15 PM 75.7 °F 27.1 °F 17% 30.00 in 10.0 mi West 21.9 mph 33.4 mph N/A   Clear
1:35 PM 76.5 °F 27.5 °F 16% 30.00 in 10.0 mi WNW 20.7 mph 29.9 mph N/A   Clear
1:55 PM 77.4 °F 27.5 °F 16% 29.99 in 10.0 mi West 18.4 mph 28.8 mph N/A   Clear
2:15 PM 77.7 °F 27.0 °F 15% 29.99 in 10.0 mi West 21.9 mph 32.2 mph N/A   Clear
2:35 PM 77.5 °F 27.0 °F 16% 29.98 in 10.0 mi West 16.1 mph 27.6 mph N/A   Clear
2:55 PM 78.6 °F 25.7 °F 14% 29.98 in 10.0 mi WSW 16.1 mph 28.8 mph N/A   Clear
3:15 PM 78.3 °F 25.2 °F 14% 29.98 in 10.0 mi West 21.9 mph 28.8 mph N/A   Clear
3:35 PM 78.8 °F 25.5 °F 14% 29.97 in 10.0 mi WNW 15.0 mph 29.9 mph N/A   Clear
3:55 PM 79.3 °F 25.5 °F 14% 29.97 in 10.0 mi WNW 21.9 mph 28.8 mph N/A   Clear
4:15 PM 79.3 °F 25.3 °F 14% 29.96 in 10.0 mi West 19.6 mph 24.2 mph N/A   Clear
4:35 PM 78.8 °F 24.4 °F 13% 29.96 in 10.0 mi West 19.6 mph 26.5 mph N/A   Clear
4:55 PM 79.3 °F 24.6 °F 13% 29.96 in 10.0 mi West 19.6 mph 28.8 mph N/A   Clear
5:20 PM 79.2 °F 23.5 °F 13% 29.95 in 10.0 mi West 12.7 mph 23.0 mph N/A   Clear
5:35 PM 79.3 °F 23.4 °F 13% 29.96 in 10.0 mi West 17.3 mph 23.0 mph N/A   Clear
5:55 PM 79.2 °F 23.5 °F 13% 29.96 in 10.0 mi West 15.0 mph 25.3 mph N/A   Clear
6:15 PM 78.6 °F 23.2 °F 13% 29.96 in 10.0 mi WSW 10.4 mph 23.0 mph N/A   Clear
6:35 PM 78.3 °F 22.8 °F 13% 29.96 in 10.0 mi West 19.6 mph 26.5 mph N/A   Clear
6:55 PM 77.5 °F 23.0 °F 13% 29.96 in 10.0 mi West 15.0 mph - N/A   Clear
7:15 PM 76.6 °F 22.5 °F 13% 29.97 in 10.0 mi West 15.0 mph - N/A   Clear
7:35 PM 75.4 °F 22.3 °F 14% 29.98 in 10.0 mi West 10.4 mph - N/A   Clear
7:55 PM 73.4 °F 21.7 °F 14% 29.98 in 10.0 mi West 11.5 mph - N/A   Clear
8:15 PM 69.3 °F 20.8 °F 16% 29.99 in 10.0 mi West 5.8 mph - N/A   Clear
8:35 PM 65.1 °F 19.8 °F 18% 30.00 in 10.0 mi West 8.1 mph - N/A   Clear
8:55 PM 63.0 °F 18.5 °F 18% 30.01 in 10.0 mi WSW 9.2 mph - N/A   Clear
9:15 PM 62.1 °F 18.5 °F 19% 30.02 in 10.0 mi WSW 8.1 mph - N/A   Clear
9:35 PM 59.9 °F 18.1 °F 20% 30.03 in 10.0 mi WSW 6.9 mph - N/A   Clear
9:55 PM 58.3 °F 17.6 °F 20% 30.04 in 10.0 mi WSW 4.6 mph - N/A   Clear
10:15 PM 56.5 °F 17.8 °F 22% 30.05 in 10.0 mi SW 8.1 mph - N/A   Clear
10:35 PM 54.3 °F 17.6 °F 24% 30.06 in 10.0 mi West 8.1 mph - N/A   Clear
10:55 PM 54.1 °F 17.4 °F 24% 30.07 in 10.0 mi SW 6.9 mph - N/A   Clear
11:15 PM 54.5 °F 17.8 °F 24% 30.09 in 10.0 mi SW 8.1 mph - N/A   Clear
11:35 PM 52.7 °F 18.9 °F 26% 30.09 in 10.0 mi SW 8.1 mph - N/A   Clear
11:55 PM 51.4 °F 19.6 °F 29% 30.09 in 10.0 mi SW 4.6 mph - N/A   Clear